This is the latest recevied weather packets stored in our database for station/object K7NDG. If no packets are shown the sender has not sent any weather packets the latest 10 day(s).
| Time | Temp. | Humidity | Pressure | Rain* | Wind** | Luminosity | Snow |
|---|---|---|---|---|---|---|---|
| 1777689154 | 12.78° C | 80% | 1017 hPa | 0 mm | - | 29 W/m² | - |
| 1777688852 | 12.78° C | 80% | 1016.9 hPa | 0 mm | - | 34 W/m² | - |
| 1777688548 | 12.78° C | 79% | 1017.2 hPa | 0 mm | - | 39 W/m² | - |
| 1777688245 | 13.33° C | 79% | 1017.1 hPa | 0 mm | - | 39 W/m² | - |
| 1777687942 | 13.33° C | 79% | 1016.9 hPa | 0 mm | - | 51 W/m² | - |
| 1777687639 | 13.33° C | 79% | 1016.7 hPa | 0 mm | - | 64 W/m² | - |
| 1777687336 | 13.33° C | 79% | 1017 hPa | 0 mm | - | 69 W/m² | - |
| 1777687035 | 13.33° C | 79% | 1017.1 hPa | 0 mm | - | 71 W/m² | - |
| 1777686730 | 13.33° C | 78% | 1017 hPa | 0 mm | - | 56 W/m² | - |
| 1777686428 | 13.33° C | 78% | 1017.1 hPa | 0 mm | - | 59 W/m² | - |
| 1777686125 | 13.33° C | 77% | 1017 hPa | 0 mm | - | 62 W/m² | - |
| 1777685821 | 13.89° C | 75% | 1017 hPa | 0 mm | - | 73 W/m² | - |
| 1777685516 | 14.44° C | 75% | 1017 hPa | 0 mm | - | 91 W/m² | - |
| 1777685214 | 14.44° C | 75% | 1017 hPa | 0 mm | - | 89 W/m² | - |
| 1777684912 | 15° C | 74% | 1017 hPa | 0 mm | - | 93 W/m² | - |
| 1777684608 | 15° C | 74% | 1016.9 hPa | 0 mm | - | 104 W/m² | - |
| 1777684304 | 15° C | 74% | 1016.9 hPa | 0 mm | - | 130 W/m² | - |
| 1777684002 | 15.56° C | 73% | 1017.1 hPa | 0 mm | - | 122 W/m² | - |
| 1777683698 | 15.56° C | 73% | 1017 hPa | 0 mm | - | 125 W/m² | - |
| 1777683396 | 15.56° C | 73% | 1016.8 hPa | 0 mm | - | 144 W/m² | - |
| 1777683093 | 15.56° C | 72% | 1017 hPa | 0 mm | - | 135 W/m² | - |
| 1777682789 | 16.11° C | 71% | 1016.9 hPa | 0 mm | - | 131 W/m² | - |
| 1777682486 | 16.11° C | 71% | 1016.9 hPa | 0 mm | - | 128 W/m² | - |
| 1777682184 | 16.67° C | 71% | 1017 hPa | 0 mm | - | 150 W/m² | - |
| 1777681880 | 16.67° C | 70% | 1016.9 hPa | 0 mm | - | 214 W/m² | - |
* Rain latest hour (hover to see other rain measurements)
** Current wind speed in m/s (hover to see current wind gust speed)